Time,TemperatureF,DewpointF,PressureIn,WindDirection,WindDirectionDegrees,WindSpeedMPH,WindSpeedGustMPH,Humidity,HourlyPrecipIn,Conditions,Clouds,dailyrainin,SoftwareType,DateUTC
2013-07-21 00:00:00,73.1,71.3,30.08,SW,225,0.2,1.1,94,0.00,,,0.51,WUHU216HW,2013-07-21 04:00:00,
2013-07-21 00:05:00,73.1,71.3,30.08,SSW,203,0.7,1.1,94,0.00,,,0.00,WUHU216HW,2013-07-21 04:05:00,
2013-07-21 00:10:00,73.1,71.3,30.08,WSW,248,0.0,0.7,94,0.00,,,0.00,WUHU216HW,2013-07-21 04:10:00,
2013-07-21 00:15:00,73.1,71.3,30.08,WSW,248,0.0,1.6,94,0.00,,,0.00,WUHU216HW,2013-07-21 04:15:00,
2013-07-21 00:20:00,73.1,71.3,30.08,SW,225,0.7,1.6,94,0.00,,,0.00,WUHU216HW,2013-07-21 04:20:00,
2013-07-21 00:25:00,73.1,71.3,30.08,SSW,203,0.4,1.1,94,0.00,,,0.00,WUHU216HW,2013-07-21 04:25:00,
2013-07-21 00:30:00,73.1,71.3,30.08,West,270,0.0,1.1,94,0.00,,,0.00,WUHU216HW,2013-07-21 04:30:00,
2013-07-21 00:35:00,73.1,71.3,30.08,WSW,248,0.4,1.1,94,0.00,,,0.00,WUHU216HW,2013-07-21 04:35:00,
2013-07-21 00:40:00,73.1,71.3,30.08,South,180,1.1,1.1,94,0.00,,,0.00,WUHU216HW,2013-07-21 04:40:00,
2013-07-21 00:45:00,73.1,71.3,30.08,ESE,113,0.0,1.1,94,0.01,,,0.00,WUHU216HW,2013-07-21 04:45:00,
2013-07-21 00:50:00,73.1,71.3,30.07,WNW,293,0.0,0.4,94,0.01,,,0.02,WUHU216HW,2013-07-21 04:50:00,
2013-07-21 00:55:00,73.1,71.3,30.07,WSW,248,0.0,2.0,94,0.01,,,0.02,WUHU216HW,2013-07-21 04:55:00,
2013-07-21 01:00:00,73.1,71.3,30.07,WSW,248,0.0,2.0,94,0.01,,,0.02,WUHU216HW,2013-07-21 05:00:00,
2013-07-21 01:05:00,73.1,71.3,30.07,SW,225,0.0,0.7,94,0.01,,,0.02,WUHU216HW,2013-07-21 05:05:00,
2013-07-21 01:10:00,73.1,71.3,30.07,North,0,0.0,0.0,94,0.01,,,0.02,WUHU216HW,2013-07-21 05:10:00,
2013-07-21 01:15:00,73.1,71.3,30.07,North,0,0.0,0.0,94,0.01,,,0.02,WUHU216HW,2013-07-21 05:15:00,
2013-07-21 01:20:00,73.1,71.3,30.07,North,0,0.0,0.0,94,0.01,,,0.02,WUHU216HW,2013-07-21 05:20:00,
2013-07-21 01:25:00,73.1,71.3,30.07,North,0,0.0,0.0,94,0.01,,,0.02,WUHU216HW,2013-07-21 05:25:00,
2013-07-21 01:30:00,73.1,71.3,30.07,North,0,0.0,0.0,94,0.01,,,0.02,WUHU216HW,2013-07-21 05:30:00,
2013-07-21 01:35:00,73.1,71.3,30.07,North,0,0.0,0.0,94,0.01,,,0.02,WUHU216HW,2013-07-21 05:35:00,
2013-07-21 01:40:00,73.1,71.3,30.06,North,0,0.0,0.0,94,0.01,,,0.02,WUHU216HW,2013-07-21 05:40:00,
2013-07-21 01:45:00,73.1,71.3,30.07,North,0,0.0,0.0,94,0.00,,,0.02,WUHU216HW,2013-07-21 05:45:00,
2013-07-21 01:50:00,73.1,71.3,30.06,North,0,0.0,0.0,94,0.00,,,0.02,WUHU216HW,2013-07-21 05:50:00,
2013-07-21 01:55:00,73.1,71.3,30.06,North,0,0.0,0.0,94,0.00,,,0.02,WUHU216HW,2013-07-21 05:55:00,
2013-07-21 02:00:00,73.1,71.3,30.06,North,0,0.0,0.0,94,0.00,,,0.02,WUHU216HW,2013-07-21 06:00:00,
2013-07-21 02:05:00,73.1,71.3,30.05,North,0,0.0,0.0,94,0.00,,,0.02,WUHU216HW,2013-07-21 06:05:00,
2013-07-21 02:10:00,73.1,71.3,30.05,North,0,0.0,0.0,94,0.00,,,0.02,WUHU216HW,2013-07-21 06:10:00,
2013-07-21 02:15:00,73.1,71.3,30.05,North,0,0.0,0.0,94,0.00,,,0.02,WUHU216HW,2013-07-21 06:15:00,
2013-07-21 02:20:00,73.1,71.3,30.05,North,0,0.0,0.0,94,0.00,,,0.02,WUHU216HW,2013-07-21 06:20:00,
2013-07-21 02:25:00,73.1,71.3,30.05,North,0,0.0,0.0,94,0.00,,,0.02,WUHU216HW,2013-07-21 06:25:00,
2013-07-21 02:30:00,73.1,71.3,30.05,North,0,0.0,0.0,94,0.00,,,0.02,WUHU216HW,2013-07-21 06:30:00,
2013-07-21 02:35:00,73.1,71.3,30.05,North,0,0.0,0.0,94,0.00,,,0.02,WUHU216HW,2013-07-21 06:35:00,
2013-07-21 02:40:00,73.1,71.3,30.05,North,0,0.0,0.0,94,0.00,,,0.02,WUHU216HW,2013-07-21 06:40:00,
2013-07-21 02:45:00,73.1,71.3,30.05,North,0,0.0,0.0,94,0.00,,,0.02,WUHU216HW,2013-07-21 06:45:00,
2013-07-21 02:50:00,73.1,71.3,30.05,North,0,0.0,0.0,94,0.00,,,0.02,WUHU216HW,2013-07-21 06:50:00,
2013-07-21 02:55:00,73.1,71.3,30.04,North,0,0.0,0.0,94,0.00,,,0.02,WUHU216HW,2013-07-21 06:55:00,
2013-07-21 03:00:00,73.1,71.3,30.04,North,0,0.0,0.0,94,0.00,,,0.02,WUHU216HW,2013-07-21 07:00:00,
2013-07-21 03:05:00,73.1,71.3,30.04,North,0,0.0,0.0,94,0.00,,,0.02,WUHU216HW,2013-07-21 07:05:00,
2013-07-21 03:10:00,73.1,71.3,30.04,North,0,0.0,0.0,94,0.00,,,0.02,WUHU216HW,2013-07-21 07:10:00,
2013-07-21 03:15:00,73.1,71.3,30.04,North,0,0.0,0.0,94,0.00,,,0.02,WUHU216HW,2013-07-21 07:15:00,
2013-07-21 03:20:00,73.1,71.3,30.03,North,0,0.0,0.0,94,0.00,,,0.02,WUHU216HW,2013-07-21 07:20:00,
2013-07-21 03:25:00,73.1,71.3,30.03,North,0,0.0,0.0,94,0.00,,,0.02,WUHU216HW,2013-07-21 07:25:00,
2013-07-21 03:30:00,73.1,71.3,30.03,North,0,0.0,0.0,94,0.00,,,0.02,WUHU216HW,2013-07-21 07:30:00,
2013-07-21 03:35:00,73.1,71.3,30.03,North,0,0.0,0.0,94,0.00,,,0.02,WUHU216HW,2013-07-21 07:35:00,
2013-07-21 03:40:00,73.1,71.3,30.03,North,0,0.0,0.0,94,0.00,,,0.02,WUHU216HW,2013-07-21 07:40:00,
2013-07-21 03:45:00,73.1,71.3,30.03,North,0,0.0,0.0,94,0.00,,,0.02,WUHU216HW,2013-07-21 07:45:00,
2013-07-21 03:50:00,73.1,71.3,30.03,North,0,0.0,0.0,94,0.00,,,0.02,WUHU216HW,2013-07-21 07:50:00,
2013-07-21 03:55:00,73.1,71.3,30.03,North,0,0.0,0.0,94,0.00,,,0.02,WUHU216HW,2013-07-21 07:55:00,
2013-07-21 04:00:00,73.1,71.3,30.03,North,0,0.0,0.0,94,0.00,,,0.02,WUHU216HW,2013-07-21 08:00:00,
2013-07-21 04:05:00,73.1,71.3,30.03,North,0,0.0,0.0,94,0.00,,,0.02,WUHU216HW,2013-07-21 08:05:00,
2013-07-21 04:10:00,73.1,71.3,30.03,North,0,0.0,0.0,94,0.00,,,0.02,WUHU216HW,2013-07-21 08:10:00,
2013-07-21 04:15:00,73.1,71.3,30.03,North,0,0.0,0.0,94,0.00,,,0.02,WUHU216HW,2013-07-21 08:15:00,
2013-07-21 04:20:00,73.1,71.3,30.03,North,0,0.0,0.0,94,0.00,,,0.02,WUHU216HW,2013-07-21 08:20:00,
2013-07-21 04:25:00,72.9,71.1,30.02,North,0,0.0,0.0,94,0.00,,,0.02,WUHU216HW,2013-07-21 08:25:00,
2013-07-21 04:30:00,72.9,71.1,30.02,North,0,0.0,0.0,94,0.00,,,0.02,WUHU216HW,2013-07-21 08:30:00,
2013-07-21 04:35:00,72.9,71.1,30.02,North,0,0.0,0.0,94,0.00,,,0.02,WUHU216HW,2013-07-21 08:35:00,
2013-07-21 04:40:00,72.9,71.1,30.02,North,0,0.0,0.0,94,0.00,,,0.02,WUHU216HW,2013-07-21 08:40:00,
2013-07-21 04:45:00,72.7,70.9,30.02,North,0,0.0,0.0,94,0.00,,,0.02,WUHU216HW,2013-07-21 08:45:00,
2013-07-21 04:50:00,72.7,70.9,30.02,North,0,0.0,0.0,94,0.00,,,0.02,WUHU216HW,2013-07-21 08:50:00,
2013-07-21 04:55:00,72.7,70.9,30.02,North,0,0.0,0.0,94,0.00,,,0.02,WUHU216HW,2013-07-21 08:55:00,
2013-07-21 05:00:00,72.7,70.9,30.02,North,0,0.0,0.0,94,0.00,,,0.02,WUHU216HW,2013-07-21 09:00:00,
2013-07-21 05:05:00,72.7,70.9,30.02,North,0,0.0,0.0,94,0.00,,,0.02,WUHU216HW,2013-07-21 09:05:00,
2013-07-21 05:10:00,72.7,70.9,30.02,North,0,0.0,0.0,94,0.00,,,0.02,WUHU216HW,2013-07-21 09:10:00,
2013-07-21 05:15:00,72.5,70.8,30.02,North,0,0.0,0.0,94,0.00,,,0.02,WUHU216HW,2013-07-21 09:15:00,
2013-07-21 05:20:00,72.5,70.8,30.02,North,0,0.0,0.0,94,0.00,,,0.02,WUHU216HW,2013-07-21 09:20:00,
2013-07-21 05:25:00,72.5,70.8,30.02,North,0,0.0,0.0,94,0.00,,,0.02,WUHU216HW,2013-07-21 09:25:00,
2013-07-21 05:30:00,72.5,70.8,30.02,North,0,0.0,0.0,94,0.00,,,0.02,WUHU216HW,2013-07-21 09:30:00,
2013-07-21 05:35:00,72.5,70.8,30.02,North,0,0.0,0.0,94,0.00,,,0.02,WUHU216HW,2013-07-21 09:35:00,
2013-07-21 05:40:00,72.5,70.8,30.02,North,0,0.0,0.2,94,0.00,,,0.02,WUHU216HW,2013-07-21 09:40:00,
2013-07-21 05:45:00,72.4,70.6,30.02,North,0,0.0,0.2,94,0.00,,,0.02,WUHU216HW,2013-07-21 09:45:00,
2013-07-21 05:50:00,72.4,70.6,30.03,North,0,0.0,0.0,94,0.00,,,0.02,WUHU216HW,2013-07-21 09:50:00,
2013-07-21 05:55:00,72.4,70.6,30.03,North,0,0.0,0.0,94,0.00,,,0.02,WUHU216HW,2013-07-21 09:55:00,
2013-07-21 06:00:00,72.4,70.6,30.03,North,0,0.0,0.0,94,0.00,,,0.02,WUHU216HW,2013-07-21 10:00:00,
2013-07-21 06:05:00,72.4,70.6,30.03,North,0,0.0,0.0,94,0.00,,,0.02,WUHU216HW,2013-07-21 10:05:00,
2013-07-21 06:10:00,72.4,70.8,30.03,North,0,0.0,0.0,95,0.00,,,0.02,WUHU216HW,2013-07-21 10:10:00,
2013-07-21 06:15:00,72.4,70.8,30.04,NNW,338,0.0,0.0,95,0.00,,,0.02,WUHU216HW,2013-07-21 10:15:00,
2013-07-21 06:20:00,72.4,70.8,30.04,NNW,338,0.0,0.0,95,0.00,,,0.02,WUHU216HW,2013-07-21 10:20:00,
2013-07-21 06:25:00,72.4,70.8,30.04,NNW,338,0.0,0.0,95,0.00,,,0.02,WUHU216HW,2013-07-21 10:25:00,
2013-07-21 06:30:00,72.2,70.7,30.04,NNW,338,0.0,0.0,95,0.00,,,0.02,WUHU216HW,2013-07-21 10:30:00,
2013-07-21 06:35:00,72.2,70.7,30.04,NNW,338,0.0,0.0,95,0.00,,,0.02,WUHU216HW,2013-07-21 10:35:00,
2013-07-21 06:40:00,72.2,70.7,30.04,NNW,338,0.0,0.0,95,0.00,,,0.02,WUHU216HW,2013-07-21 10:40:00,
2013-07-21 06:45:00,72.2,70.7,30.05,North,0,0.0,0.9,95,0.00,,,0.02,WUHU216HW,2013-07-21 10:45:00,
2013-07-21 06:50:00,72.2,70.7,30.05,North,0,0.2,0.9,95,0.00,,,0.02,WUHU216HW,2013-07-21 10:50:00,
2013-07-21 06:55:00,72.2,70.7,30.05,North,0,0.0,0.4,95,0.00,,,0.02,WUHU216HW,2013-07-21 10:55:00,
2013-07-21 07:00:00,72.2,70.7,30.05,North,0,0.0,0.4,95,0.00,,,0.02,WUHU216HW,2013-07-21 11:00:00,
2013-07-21 07:05:00,72.4,70.8,30.05,North,0,0.0,0.2,95,0.00,,,0.02,WUHU216HW,2013-07-21 11:05:00,
2013-07-21 07:10:00,72.4,70.8,30.05,North,0,0.0,0.2,95,0.00,,,0.02,WUHU216HW,2013-07-21 11:10:00,
2013-07-21 07:15:00,72.4,70.8,30.05,North,0,0.0,0.0,95,0.00,,,0.02,WUHU216HW,2013-07-21 11:15:00,
2013-07-21 07:20:00,72.4,70.8,30.05,North,0,0.4,0.7,95,0.00,,,0.02,WUHU216HW,2013-07-21 11:20:00,
2013-07-21 07:25:00,72.4,70.8,30.06,WSW,248,0.0,0.7,95,0.00,,,0.02,WUHU216HW,2013-07-21 11:25:00,
2013-07-21 07:30:00,72.4,70.8,30.06,WSW,248,0.0,0.2,95,0.00,,,0.02,WUHU216HW,2013-07-21 11:30:00,
2013-07-21 07:35:00,72.4,70.8,30.06,WSW,248,0.0,0.2,95,0.00,,,0.02,WUHU216HW,2013-07-21 11:35:00,
2013-07-21 07:40:00,72.5,71.0,30.06,WSW,248,2.2,2.2,95,0.00,,,0.02,WUHU216HW,2013-07-21 11:40:00,
2013-07-21 07:45:00,72.5,71.0,30.07,SSW,203,1.8,2.2,95,0.00,,,0.02,WUHU216HW,2013-07-21 11:45:00,
2013-07-21 07:50:00,72.7,71.2,30.07,SSW,203,0.2,1.8,95,0.00,,,0.02,WUHU216HW,2013-07-21 11:50:00,
2013-07-21 07:55:00,72.7,71.2,30.07,South,180,0.4,1.1,95,0.00,,,0.02,WUHU216HW,2013-07-21 11:55:00,
2013-07-21 08:00:00,72.9,71.4,30.07,SW,225,0.4,1.1,95,0.00,,,0.02,WUHU216HW,2013-07-21 12:00:00,
2013-07-21 08:05:00,73.1,71.6,30.07,WSW,248,1.1,1.1,95,0.00,,,0.02,WUHU216HW,2013-07-21 12:05:00,
2013-07-21 08:10:00,73.1,71.6,30.07,SSW,203,1.1,1.1,95,0.00,,,0.02,WUHU216HW,2013-07-21 12:10:00,
2013-07-21 08:15:00,73.4,71.9,30.08,South,180,1.6,1.6,95,0.00,,,0.02,WUHU216HW,2013-07-21 12:15:00,
2013-07-21 08:20:00,73.4,72.2,30.08,West,270,0.2,2.0,96,0.00,,,0.02,WUHU216HW,2013-07-21 12:20:00,
2013-07-21 08:25:00,73.8,72.5,30.08,WSW,248,1.6,2.0,96,0.00,,,0.02,WUHU216HW,2013-07-21 12:25:00,
2013-07-21 08:30:00,73.8,72.5,30.07,WSW,248,0.9,1.6,96,0.00,,,0.02,WUHU216HW,2013-07-21 12:30:00,
2013-07-21 08:35:00,74.2,72.9,30.08,WSW,248,1.8,1.8,96,0.00,,,0.02,WUHU216HW,2013-07-21 12:35:00,
2013-07-21 08:40:00,74.3,73.1,30.08,West,270,0.0,2.0,96,0.00,,,0.02,WUHU216HW,2013-07-21 12:40:00,
2013-07-21 08:45:00,74.7,73.4,30.07,West,270,0.0,2.0,96,0.00,,,0.02,WUHU216HW,2013-07-21 12:45:00,
2013-07-21 08:50:00,75.1,73.5,30.08,WSW,248,0.7,2.5,95,0.00,,,0.02,WUHU216HW,2013-07-21 12:50:00,
2013-07-21 08:55:00,75.2,73.7,30.08,WSW,248,2.5,3.4,95,0.00,,,0.02,WUHU216HW,2013-07-21 12:55:00,
2013-07-21 09:00:00,75.4,73.9,30.08,WSW,248,1.1,3.4,95,0.00,,,0.02,WUHU216HW,2013-07-21 13:00:00,
2013-07-21 09:05:00,75.6,73.8,30.08,SW,225,0.7,2.7,94,0.00,,,0.02,WUHU216HW,2013-07-21 13:05:00,
2013-07-21 09:10:00,76.0,74.2,30.08,SSE,158,0.2,3.1,94,0.00,,,0.02,WUHU216HW,2013-07-21 13:10:00,
2013-07-21 09:15:00,76.3,74.2,30.07,SSW,203,1.8,3.1,93,0.00,,,0.02,WUHU216HW,2013-07-21 13:15:00,
2013-07-21 09:20:00,76.7,74.5,30.08,ESE,113,2.2,2.5,93,0.00,,,0.02,WUHU216HW,2013-07-21 13:20:00,
2013-07-21 09:25:00,76.9,74.7,30.08,West,270,0.7,2.2,93,0.00,,,0.02,WUHU216HW,2013-07-21 13:25:00,
2013-07-21 09:30:00,77.4,75.0,30.08,North,0,0.9,1.8,92,0.00,,,0.02,WUHU216HW,2013-07-21 13:30:00,
2013-07-21 09:35:00,77.8,75.3,30.08,SW,225,2.5,4.0,92,0.00,,,0.02,WUHU216HW,2013-07-21 13:35:00,
2013-07-21 09:40:00,78.1,75.7,30.08,WSW,248,3.4,4.0,92,0.00,,,0.02,WUHU216HW,2013-07-21 13:40:00,
2013-07-21 09:45:00,78.3,74.9,30.08,WSW,248,1.1,3.4,89,0.00,,,0.02,WUHU216HW,2013-07-21 13:45:00,
2013-07-21 09:50:00,78.7,75.6,30.08,SW,225,1.1,2.9,90,0.00,,,0.02,WUHU216HW,2013-07-21 13:50:00,
2013-07-21 09:55:00,78.8,75.4,30.08,West,270,3.8,3.8,89,0.00,,,0.02,WUHU216HW,2013-07-21 13:55:00,
2013-07-21 10:00:00,79.0,75.6,30.08,SW,225,1.8,3.8,89,0.00,,,0.02,WUHU216HW,2013-07-21 14:00:00,
2013-07-21 10:05:00,79.2,75.8,30.08,WSW,248,1.8,2.5,89,0.00,,,0.02,WUHU216HW,2013-07-21 14:05:00,
2013-07-21 10:10:00,79.6,76.1,30.08,West,270,1.3,2.9,89,0.00,,,0.02,WUHU216HW,2013-07-21 14:10:00,
2013-07-21 10:15:00,79.7,75.9,30.08,SW,225,2.5,3.4,88,0.00,,,0.02,WUHU216HW,2013-07-21 14:15:00,
2013-07-21 10:20:00,79.9,75.7,30.08,WSW,248,2.7,3.8,87,0.00,,,0.02,WUHU216HW,2013-07-21 14:20:00,
2013-07-21 10:25:00,80.1,75.9,30.08,WNW,293,0.0,3.8,87,0.00,,,0.02,WUHU216HW,2013-07-21 14:25:00,
2013-07-21 10:30:00,80.5,76.2,30.09,WSW,248,4.7,4.7,87,0.00,,,0.02,WUHU216HW,2013-07-21 14:30:00,
2013-07-21 10:35:00,80.6,75.7,30.08,West,270,2.5,4.7,85,0.00,,,0.02,WUHU216HW,2013-07-21 14:35:00,
2013-07-21 10:40:00,80.8,75.9,30.08,WNW,293,0.4,3.4,85,0.00,,,0.02,WUHU216HW,2013-07-21 14:40:00,
2013-07-21 10:45:00,81.4,76.8,30.08,WSW,248,2.0,2.9,86,0.00,,,0.02,WUHU216HW,2013-07-21 14:45:00,
2013-07-21 10:50:00,81.7,76.8,30.09,WSW,248,1.1,2.7,85,0.00,,,0.02,WUHU216HW,2013-07-21 14:50:00,
2013-07-21 10:56:00,81.9,77.0,30.09,West,270,1.8,3.6,85,0.00,,,0.02,WUHU216HW,2013-07-21 14:56:00,
2013-07-21 11:01:00,82.6,77.7,30.09,West,270,1.1,3.6,85,0.00,,,0.02,WUHU216HW,2013-07-21 15:01:00,
2013-07-21 11:06:00,83.0,77.7,30.09,West,270,4.3,4.3,84,0.00,,,0.02,WUHU216HW,2013-07-21 15:06:00,
2013-07-21 11:11:00,83.0,77.0,30.09,SW,225,2.2,4.3,82,0.00,,,0.02,WUHU216HW,2013-07-21 15:11:00,
2013-07-21 11:16:00,82.8,76.4,30.09,SW,225,3.4,5.6,81,0.00,,,0.02,WUHU216HW,2013-07-21 15:16:00,
2013-07-21 11:21:00,83.0,76.6,30.09,WNW,293,1.3,5.6,81,0.00,,,0.02,WUHU216HW,2013-07-21 15:21:00,
2013-07-21 11:26:00,83.3,77.3,30.09,WSW,248,1.1,3.8,82,0.00,,,0.02,WUHU216HW,2013-07-21 15:26:00,
2013-07-21 11:31:00,84.4,77.9,30.09,SSW,203,2.9,3.6,81,0.00,,,0.02,WUHU216HW,2013-07-21 15:31:00,
2013-07-21 11:36:00,84.6,77.8,30.09,WSW,248,1.1,2.9,80,0.00,,,0.02,WUHU216HW,2013-07-21 15:36:00,
2013-07-21 11:41:00,84.6,77.8,30.09,SW,225,1.3,4.3,80,0.00,,,0.02,WUHU216HW,2013-07-21 15:41:00,
2013-07-21 11:46:00,85.0,77.0,30.08,WSW,248,3.6,4.3,77,0.00,,,0.02,WUHU216HW,2013-07-21 15:46:00,
2013-07-21 11:51:00,85.3,77.3,30.08,WSW,248,1.8,4.0,77,0.00,,,0.02,WUHU216HW,2013-07-21 15:51:00,
2013-07-21 11:56:00,86.2,77.8,30.08,WSW,248,0.9,7.2,76,0.00,,,0.02,WUHU216HW,2013-07-21 15:56:00,
2013-07-21 12:01:00,87.1,79.0,30.08,WSW,248,4.3,7.2,77,0.00,,,0.02,WUHU216HW,2013-07-21 16:01:00,
2013-07-21 12:06:00,87.5,78.2,30.08,WSW,248,5.6,5.6,74,0.00,,,0.02,WUHU216HW,2013-07-21 16:06:00,
2013-07-21 12:11:00,87.5,78.6,30.07,WSW,248,1.6,5.6,75,0.00,,,0.02,WUHU216HW,2013-07-21 16:11:00,
2013-07-21 12:16:00,88.2,79.3,30.07,WNW,293,3.1,4.5,75,0.00,,,0.02,WUHU216HW,2013-07-21 16:16:00,
2013-07-21 12:21:00,88.0,77.9,30.07,West,270,2.5,3.1,72,0.00,,,0.02,WUHU216HW,2013-07-21 16:21:00,
2013-07-21 12:26:00,88.2,77.2,30.06,West,270,2.2,4.0,70,0.00,,,0.02,WUHU216HW,2013-07-21 16:26:00,
2013-07-21 12:31:00,87.5,76.5,30.07,West,270,0.4,4.0,70,0.00,,,0.02,WUHU216HW,2013-07-21 16:31:00,
2013-07-21 12:36:00,86.8,76.7,30.06,SSW,203,1.3,3.4,72,0.00,,,0.02,WUHU216HW,2013-07-21 16:36:00,
2013-07-21 12:41:00,86.9,77.7,30.06,NW,315,2.5,4.0,74,0.00,,,0.02,WUHU216HW,2013-07-21 16:41:00,
2013-07-21 12:46:00,87.8,76.9,30.05,West,270,2.0,4.0,70,0.00,,,0.02,WUHU216HW,2013-07-21 16:46:00,
2013-07-21 12:51:00,88.7,78.6,30.05,SW,225,1.6,4.0,72,0.00,,,0.02,WUHU216HW,2013-07-21 16:51:00,
2013-07-21 12:56:00,89.5,78.5,30.05,West,270,2.0,3.8,70,0.00,,,0.02,WUHU216HW,2013-07-21 16:56:00,
2013-07-21 13:01:00,89.8,77.4,30.05,SSW,203,1.8,3.8,67,0.00,,,0.02,WUHU216HW,2013-07-21 17:01:00,
2013-07-21 13:06:00,88.9,77.1,30.05,SW,225,2.0,3.4,68,0.00,,,0.02,WUHU216HW,2013-07-21 17:06:00,
2013-07-21 13:11:00,88.2,77.2,30.05,WSW,248,2.5,3.4,70,0.00,,,0.02,WUHU216HW,2013-07-21 17:11:00,
2013-07-21 13:16:00,88.2,77.7,30.05,WNW,293,0.2,2.5,71,0.00,,,0.02,WUHU216HW,2013-07-21 17:16:00,
2013-07-21 13:21:00,88.0,77.5,30.05,WNW,293,3.4,3.4,71,0.00,,,0.02,WUHU216HW,2013-07-21 17:21:00,
2013-07-21 13:26:00,88.0,76.6,30.05,SW,225,3.1,6.3,69,0.00,,,0.02,WUHU216HW,2013-07-21 17:26:00,
2013-07-21 13:31:00,88.7,78.2,30.04,WSW,248,2.5,6.3,71,0.00,,,0.02,WUHU216HW,2013-07-21 17:31:00,
2013-07-21 13:36:00,89.8,79.7,30.04,NNW,338,2.7,2.7,72,0.00,,,0.02,WUHU216HW,2013-07-21 17:36:00,
2013-07-21 13:41:00,90.7,79.2,30.04,WSW,248,2.9,4.7,69,0.00,,,0.02,WUHU216HW,2013-07-21 17:41:00,
2013-07-21 13:46:00,91.1,79.0,30.04,WSW,248,1.1,4.7,68,0.00,,,0.02,WUHU216HW,2013-07-21 17:46:00,
2013-07-21 13:51:00,90.9,78.4,30.04,West,270,6.3,6.3,67,0.00,,,0.02,WUHU216HW,2013-07-21 17:51:00,
2013-07-21 13:56:00,90.9,78.8,30.03,West,270,1.3,6.3,68,0.00,,,0.02,WUHU216HW,2013-07-21 17:56:00,
2013-07-21 14:01:00,90.7,77.3,30.04,SW,225,2.5,5.4,65,0.00,,,0.02,WUHU216HW,2013-07-21 18:01:00,
2013-07-21 14:06:00,88.7,76.0,30.04,WSW,248,3.4,5.4,66,0.00,,,0.02,WUHU216HW,2013-07-21 18:06:00,
2013-07-21 14:11:00,88.4,76.5,30.03,WSW,248,2.7,4.7,68,0.00,,,0.02,WUHU216HW,2013-07-21 18:11:00,
2013-07-21 14:16:00,88.6,76.7,30.03,West,270,1.1,3.4,68,0.00,,,0.02,WUHU216HW,2013-07-21 18:16:00,
2013-07-21 14:21:00,88.9,77.1,30.03,WSW,248,2.9,3.4,68,0.00,,,0.02,WUHU216HW,2013-07-21 18:21:00,
2013-07-21 14:26:00,88.7,76.4,30.03,WSW,248,2.5,3.8,67,0.00,,,0.02,WUHU216HW,2013-07-21 18:26:00,
2013-07-21 14:31:00,88.0,76.2,30.03,SW,225,4.9,4.9,68,0.00,,,0.02,WUHU216HW,2013-07-21 18:31:00,
2013-07-21 14:36:00,86.4,75.6,30.03,WSW,248,1.8,4.9,70,0.00,,,0.02,WUHU216HW,2013-07-21 18:36:00,
2013-07-21 14:41:00,85.7,75.7,30.04,WSW,248,4.3,4.3,72,0.00,,,0.02,WUHU216HW,2013-07-21 18:41:00,
2013-07-21 14:46:00,86.4,77.1,30.04,WNW,293,5.1,5.1,74,0.00,,,0.02,WUHU216HW,2013-07-21 18:46:00,
2013-07-21 14:56:00,84.4,74.8,30.04,WSW,248,2.7,5.1,73,0.00,,,0.02,WUHU216HW,2013-07-21 18:56:00,
2013-07-21 15:01:00,83.2,74.8,30.04,WSW,248,1.8,4.3,76,0.01,,,0.02,WUHU216HW,2013-07-21 19:01:00,
2013-07-21 15:06:00,81.5,73.7,30.03,WNW,293,0.4,5.6,77,0.01,,,0.03,WUHU216HW,2013-07-21 19:06:00,
2013-07-21 15:11:00,80.5,73.5,30.03,WSW,248,2.2,5.6,79,0.01,,,0.03,WUHU216HW,2013-07-21 19:11:00,
2013-07-21 15:16:00,80.3,73.6,30.03,West,270,0.4,4.5,80,0.01,,,0.03,WUHU216HW,2013-07-21 19:16:00,
2013-07-21 15:21:00,80.1,73.8,30.02,WSW,248,0.7,2.9,81,0.01,,,0.03,WUHU216HW,2013-07-21 19:21:00,
2013-07-21 15:26:00,79.9,73.6,30.02,WNW,293,0.2,1.6,81,0.01,,,0.03,WUHU216HW,2013-07-21 19:26:00,
2013-07-21 15:31:00,80.1,74.2,30.02,WSW,248,1.1,1.6,82,0.01,,,0.03,WUHU216HW,2013-07-21 19:31:00,
2013-07-21 15:36:00,80.1,74.2,30.01,WSW,248,0.4,1.6,82,0.01,,,0.03,WUHU216HW,2013-07-21 19:36:00,
2013-07-21 15:41:00,80.3,74.7,30.02,WSW,248,1.3,2.2,83,0.01,,,0.03,WUHU216HW,2013-07-21 19:41:00,
2013-07-21 15:46:00,80.3,74.7,30.02,SW,225,1.8,2.2,83,0.01,,,0.03,WUHU216HW,2013-07-21 19:46:00,
2013-07-21 15:51:00,80.3,74.7,30.02,West,270,0.0,1.8,83,0.01,,,0.03,WUHU216HW,2013-07-21 19:51:00,
2013-07-21 15:56:00,80.1,74.5,30.02,WSW,248,0.4,1.1,83,0.01,,,0.03,WUHU216HW,2013-07-21 19:56:00,
2013-07-21 16:01:00,80.1,74.5,30.03,SSW,203,1.6,2.5,83,0.00,,,0.03,WUHU216HW,2013-07-21 20:01:00,
2013-07-21 16:06:00,80.1,74.5,30.02,WSW,248,0.7,2.5,83,0.00,,,0.03,WUHU216HW,2013-07-21 20:06:00,
2013-07-21 16:11:00,80.1,74.5,30.02,WSW,248,1.8,2.5,83,0.00,,,0.03,WUHU216HW,2013-07-21 20:11:00,
2013-07-21 16:16:00,79.9,74.4,30.02,West,270,1.1,2.5,83,0.00,,,0.03,WUHU216HW,2013-07-21 20:16:00,
2013-07-21 16:21:00,80.3,74.7,30.02,WSW,248,0.4,1.8,83,0.00,,,0.03,WUHU216HW,2013-07-21 20:21:00,
2013-07-21 16:26:00,80.6,75.0,30.02,West,270,0.0,1.8,83,0.00,,,0.03,WUHU216HW,2013-07-21 20:26:00,
2013-07-21 16:31:00,80.6,75.0,30.02,West,270,1.8,1.8,83,0.00,,,0.03,WUHU216HW,2013-07-21 20:31:00,
2013-07-21 16:36:00,81.0,75.3,30.02,WSW,248,0.7,1.8,83,0.00,,,0.03,WUHU216HW,2013-07-21 20:36:00,
2013-07-21 16:41:00,81.0,75.3,30.02,WSW,248,0.7,1.8,83,0.00,,,0.03,WUHU216HW,2013-07-21 20:41:00,
2013-07-21 16:46:00,81.0,75.3,30.02,SSW,203,1.1,1.8,83,0.00,,,0.03,WUHU216HW,2013-07-21 20:46:00,
2013-07-21 16:51:00,81.0,75.3,30.02,WSW,248,1.3,2.0,83,0.00,,,0.03,WUHU216HW,2013-07-21 20:51:00,
2013-07-21 16:56:00,81.2,75.5,30.02,WSW,248,0.7,3.1,83,0.00,,,0.03,WUHU216HW,2013-07-21 20:56:00,
2013-07-21 17:01:00,81.4,76.1,30.02,West,270,0.7,3.1,84,0.00,,,0.03,WUHU216HW,2013-07-21 21:01:00,
2013-07-21 17:06:00,81.5,76.2,30.02,WSW,248,1.3,2.2,84,0.00,,,0.03,WUHU216HW,2013-07-21 21:06:00,
2013-07-21 17:11:00,81.7,76.4,30.01,WSW,248,0.9,2.0,84,0.00,,,0.03,WUHU216HW,2013-07-21 21:11:00,
2013-07-21 17:16:00,81.9,76.6,30.00,WNW,293,0.2,2.0,84,0.00,,,0.03,WUHU216HW,2013-07-21 21:16:00,
2013-07-21 17:21:00,81.9,76.6,30.01,WSW,248,0.2,1.8,84,0.00,,,0.03,WUHU216HW,2013-07-21 21:21:00,
2013-07-21 17:26:00,82.3,77.0,30.00,West,270,0.0,1.8,84,0.00,,,0.03,WUHU216HW,2013-07-21 21:26:00,
2013-07-21 17:31:00,82.4,76.8,30.00,WSW,248,0.2,1.6,83,0.00,,,0.03,WUHU216HW,2013-07-21 21:31:00,
2013-07-21 17:36:00,82.3,76.6,30.00,WSW,248,1.6,1.6,83,0.00,,,0.03,WUHU216HW,2013-07-21 21:36:00,
2013-07-21 17:41:00,82.4,77.1,30.00,West,270,0.9,1.6,84,0.00,,,0.03,WUHU216HW,2013-07-21 21:41:00,
2013-07-21 17:46:00,82.8,77.5,30.00,SSW,203,1.1,1.1,84,0.00,,,0.03,WUHU216HW,2013-07-21 21:46:00,
2013-07-21 17:51:00,83.0,77.7,30.00,WSW,248,1.1,1.1,84,0.00,,,0.03,WUHU216HW,2013-07-21 21:51:00,
2013-07-21 17:56:00,83.0,77.3,30.00,WSW,248,0.9,2.5,83,0.00,,,0.03,WUHU216HW,2013-07-21 21:56:00,
2013-07-21 18:02:00,82.8,77.1,30.00,WSW,248,0.7,3.4,83,0.00,,,0.03,WUHU216HW,2013-07-21 22:02:00,
2013-07-21 18:07:00,83.0,77.7,30.00,SSW,203,0.7,3.4,84,0.00,,,0.03,WUHU216HW,2013-07-21 22:07:00,
2013-07-21 18:12:00,83.2,77.5,30.00,SW,225,0.4,1.8,83,0.00,,,0.03,WUHU216HW,2013-07-21 22:12:00,
2013-07-21 18:17:00,83.3,78.0,30.00,South,180,0.4,1.1,84,0.00,,,0.03,WUHU216HW,2013-07-21 22:17:00,
2013-07-21 18:22:00,83.5,77.9,30.00,SW,225,0.9,2.5,83,0.00,,,0.03,WUHU216HW,2013-07-21 22:22:00,
2013-07-21 18:27:00,83.5,77.9,30.00,West,270,1.1,2.5,83,0.00,,,0.03,WUHU216HW,2013-07-21 22:27:00,
2013-07-21 18:32:00,83.7,77.6,30.00,NW,315,2.5,3.1,82,0.00,,,0.03,WUHU216HW,2013-07-21 22:32:00,
2013-07-21 18:37:00,83.7,76.2,30.00,WSW,248,4.0,4.5,78,0.00,,,0.03,WUHU216HW,2013-07-21 22:37:00,
2013-07-21 18:42:00,83.7,76.2,30.00,West,270,3.1,4.5,78,0.00,,,0.03,WUHU216HW,2013-07-21 22:42:00,
2013-07-21 18:47:00,83.7,75.3,30.00,SW,225,3.6,4.0,76,0.00,,,0.03,WUHU216HW,2013-07-21 22:47:00,
2013-07-21 18:52:00,83.7,75.3,30.00,WNW,293,2.2,5.1,76,0.00,,,0.03,WUHU216HW,2013-07-21 22:52:00,
2013-07-21 18:57:00,83.3,74.6,30.00,NNW,338,1.1,5.1,75,0.00,,,0.03,WUHU216HW,2013-07-21 22:57:00,
2013-07-21 19:02:00,83.2,74.4,30.00,SW,225,1.8,5.8,75,0.00,,,0.03,WUHU216HW,2013-07-21 23:02:00,
2013-07-21 19:07:00,83.0,74.6,30.00,West,270,2.7,5.8,76,0.00,,,0.03,WUHU216HW,2013-07-21 23:07:00,
2013-07-21 19:12:00,82.8,74.4,30.00,SW,225,0.9,3.6,76,0.00,,,0.03,WUHU216HW,2013-07-21 23:12:00,
2013-07-21 19:17:00,82.8,74.4,30.00,NNW,338,0.4,3.6,76,0.00,,,0.03,WUHU216HW,2013-07-21 23:17:00,
2013-07-21 19:22:00,82.4,74.2,30.00,WSW,248,1.8,3.4,76,0.00,,,0.03,WUHU216HW,2013-07-21 23:22:00,
2013-07-21 19:27:00,82.4,74.2,30.00,WSW,248,1.6,3.4,76,0.00,,,0.03,WUHU216HW,2013-07-21 23:27:00,
2013-07-21 19:32:00,82.3,74.0,30.00,WSW,248,0.4,2.5,76,0.00,,,0.03,WUHU216HW,2013-07-21 23:32:00,
2013-07-21 19:37:00,82.1,74.2,30.01,WNW,293,1.6,2.5,77,0.00,,,0.03,WUHU216HW,2013-07-21 23:37:00,
2013-07-21 19:42:00,81.7,73.8,30.01,West,270,1.8,2.0,77,0.00,,,0.03,WUHU216HW,2013-07-21 23:42:00,
2013-07-21 19:47:00,81.7,73.8,30.01,West,270,0.9,2.0,77,0.00,,,0.03,WUHU216HW,2013-07-21 23:47:00,
2013-07-21 19:52:00,81.4,73.9,30.02,WSW,248,1.8,4.0,78,0.00,,,0.03,WUHU216HW,2013-07-21 23:52:00,
2013-07-21 19:57:00,81.2,73.7,30.02,WSW,248,0.2,4.0,78,0.00,,,0.03,WUHU216HW,2013-07-21 23:57:00,
2013-07-21 20:02:00,81.0,73.5,30.03,West,270,1.3,1.6,78,0.00,,,0.03,WUHU216HW,2013-07-22 00:02:00,
2013-07-21 20:07:00,81.0,73.5,30.03,SW,225,1.1,1.8,78,0.00,,,0.03,WUHU216HW,2013-07-22 00:07:00,
2013-07-21 20:12:00,80.8,73.8,30.03,WSW,248,0.4,1.8,79,0.00,,,0.03,WUHU216HW,2013-07-22 00:12:00,
2013-07-21 20:17:00,80.6,73.6,30.03,WSW,248,0.9,1.8,79,0.00,,,0.03,WUHU216HW,2013-07-22 00:17:00,
2013-07-21 20:22:00,80.5,73.8,30.03,WSW,248,1.1,1.6,80,0.00,,,0.03,WUHU216HW,2013-07-22 00:22:00,
2013-07-21 20:27:00,80.3,73.6,30.03,WSW,248,0.7,1.8,80,0.00,,,0.03,WUHU216HW,2013-07-22 00:27:00,
2013-07-21 20:32:00,80.1,73.8,30.03,WSW,248,0.7,1.8,81,0.00,,,0.03,WUHU216HW,2013-07-22 00:32:00,
2013-07-21 20:37:00,79.9,73.6,30.03,WSW,248,1.8,2.0,81,0.00,,,0.03,WUHU216HW,2013-07-22 00:37:00,
2013-07-21 20:42:00,79.7,73.5,30.03,WSW,248,1.1,2.0,81,0.00,,,0.03,WUHU216HW,2013-07-22 00:42:00,
2013-07-21 20:47:00,79.6,73.3,30.03,SSW,203,1.6,2.0,81,0.00,,,0.03,WUHU216HW,2013-07-22 00:47:00,
2013-07-21 20:52:00,79.4,73.5,30.02,WSW,248,1.8,2.0,82,0.00,,,0.03,WUHU216HW,2013-07-22 00:52:00,
2013-07-21 20:57:00,79.2,73.3,30.03,WSW,248,1.1,2.0,82,0.00,,,0.03,WUHU216HW,2013-07-22 00:57:00,
2013-07-21 21:02:00,79.2,73.3,30.03,SW,225,1.6,1.8,82,0.00,,,0.03,WUHU216HW,2013-07-22 01:02:00,
2013-07-21 21:07:00,79.0,73.1,30.03,West,270,0.7,1.8,82,0.00,,,0.03,WUHU216HW,2013-07-22 01:07:00,
2013-07-21 21:12:00,78.8,72.9,30.03,WSW,248,0.2,1.3,82,0.00,,,0.03,WUHU216HW,2013-07-22 01:12:00,
2013-07-21 21:17:00,78.8,72.9,30.03,WSW,248,0.2,1.1,82,0.00,,,0.03,WUHU216HW,2013-07-22 01:17:00,
2013-07-21 21:22:00,78.7,72.7,30.04,SSW,203,0.2,1.1,82,0.00,,,0.03,WUHU216HW,2013-07-22 01:22:00,
2013-07-21 21:27:00,78.5,72.5,30.04,SSW,203,0.0,0.7,82,0.00,,,0.03,WUHU216HW,2013-07-22 01:27:00,
2013-07-21 21:32:00,78.3,72.7,30.04,SW,225,0.0,0.4,83,0.00,,,0.03,WUHU216HW,2013-07-22 01:32:00,
2013-07-21 21:37:00,78.1,72.5,30.04,SW,225,0.0,0.0,83,0.00,,,0.03,WUHU216HW,2013-07-22 01:37:00,
2013-07-21 21:42:00,77.9,72.7,30.04,SW,225,0.0,0.0,84,0.00,,,0.03,WUHU216HW,2013-07-22 01:42:00,
2013-07-21 21:47:00,77.8,72.5,30.04,SW,225,0.0,0.0,84,0.00,,,0.03,WUHU216HW,2013-07-22 01:47:00,
2013-07-21 21:52:00,77.6,72.7,30.04,SW,225,0.0,0.0,85,0.00,,,0.03,WUHU216HW,2013-07-22 01:52:00,
2013-07-21 21:57:00,77.4,72.5,30.05,SW,225,0.0,0.0,85,0.00,,,0.03,WUHU216HW,2013-07-22 01:57:00,
2013-07-21 22:02:00,77.2,72.7,30.04,West,270,0.0,0.7,86,0.00,,,0.03,WUHU216HW,2013-07-22 02:02:00,
2013-07-21 22:07:00,76.9,72.4,30.04,West,270,0.0,0.7,86,0.00,,,0.03,WUHU216HW,2013-07-22 02:07:00,
2013-07-21 22:12:00,76.7,72.9,30.05,South,180,0.0,0.7,88,0.00,,,0.03,WUHU216HW,2013-07-22 02:12:00,
2013-07-21 22:17:00,76.5,72.7,30.05,South,180,0.0,0.7,88,0.00,,,0.03,WUHU216HW,2013-07-22 02:17:00,
2013-07-21 22:22:00,76.3,72.5,30.05,SSW,203,0.2,0.4,88,0.00,,,0.03,WUHU216HW,2013-07-22 02:22:00,
2013-07-21 22:27:00,76.3,72.9,30.05,South,180,0.2,0.4,89,0.00,,,0.03,WUHU216HW,2013-07-22 02:27:00,
2013-07-21 22:32:00,76.1,72.7,30.06,South,180,0.2,0.7,89,0.00,,,0.03,WUHU216HW,2013-07-22 02:32:00,
2013-07-21 22:37:00,76.1,72.7,30.06,ESE,113,0.2,0.7,89,0.00,,,0.03,WUHU216HW,2013-07-22 02:37:00,
2013-07-21 22:42:00,76.0,72.5,30.06,ESE,113,0.0,0.4,89,0.00,,,0.03,WUHU216HW,2013-07-22 02:42:00,
2013-07-21 22:47:00,76.0,72.5,30.06,West,270,0.0,0.9,89,0.00,,,0.03,WUHU216HW,2013-07-22 02:47:00,
2013-07-21 22:52:00,76.0,72.5,30.06,West,270,0.0,0.9,89,0.00,,,0.03,WUHU216HW,2013-07-22 02:52:00,
2013-07-21 22:57:00,76.0,72.5,30.07,West,270,0.0,0.2,89,0.00,,,0.03,WUHU216HW,2013-07-22 02:57:00,
2013-07-21 23:02:00,75.8,72.4,30.06,West,270,0.0,0.2,89,0.00,,,0.03,WUHU216HW,2013-07-22 03:02:00,
2013-07-21 23:07:00,75.6,72.2,30.07,SSW,203,0.0,0.7,89,0.00,,,0.03,WUHU216HW,2013-07-22 03:07:00,
2013-07-21 23:12:00,75.6,72.5,30.07,SW,225,0.0,0.7,90,0.00,,,0.03,WUHU216HW,2013-07-22 03:12:00,
2013-07-21 23:17:00,75.6,72.5,30.07,SSE,158,0.0,0.4,90,0.00,,,0.03,WUHU216HW,2013-07-22 03:17:00,
2013-07-21 23:22:00,75.6,72.5,30.07,SSE,158,0.0,0.4,90,0.00,,,0.03,WUHU216HW,2013-07-22 03:22:00,
2013-07-21 23:27:00,75.6,72.8,30.07,SSE,158,0.0,0.0,91,0.00,,,0.03,WUHU216HW,2013-07-22 03:27:00,
2013-07-21 23:32:00,75.4,72.6,30.07,SSE,158,0.0,0.0,91,0.00,,,0.03,WUHU216HW,2013-07-22 03:32:00,
2013-07-21 23:37:00,75.2,72.5,30.07,SSE,158,0.0,0.0,91,0.00,,,0.03,WUHU216HW,2013-07-22 03:37:00,
2013-07-21 23:42:00,75.2,72.5,30.08,SSE,158,0.0,0.0,91,0.00,,,0.03,WUHU216HW,2013-07-22 03:42:00,
2013-07-21 23:47:00,75.1,72.6,30.08,SSE,158,0.0,1.1,92,0.00,,,0.03,WUHU216HW,2013-07-22 03:47:00,
2013-07-21 23:52:00,75.1,72.3,30.08,SSE,158,0.0,1.1,91,0.00,,,0.03,WUHU216HW,2013-07-22 03:52:00,
2013-07-21 23:57:00,75.1,72.3,30.08,SSE,158,0.0,0.4,91,0.00,,,0.03,WUHU216HW,2013-07-22 03:57:00,